IRIDIUM 33 DEB, 38474

Orbit data source: Space-Track

IRIDIUM 33 DEB, 38474 is space debris in LEO originally from a launch on Sun, 14 Sep 1997 UTC launched from the Tyuratam Missile And Space Complex (TTMTR). The debris from Iridium 33, an American commercial communications satellite, has been tracked extensively since its accidental collision with the defunct Russian satellite Cosmos 2251 in 2009. This event, occurring at high speed in low Earth orbit (LEO), generated thousands of pieces of space debris, significantly increasing the risk of further collisions. The Iridium 33 debris cloud has impacted space traffic management and orbital debris mitigation strategies, making it a subject of ongoing study in space situational awareness.

Loading next visibility...
IRIDIUM 33 DEB details
Identifier
38474, 1997-051AAB
Orbit
LEO
Last TLE update5 days ago
Origin
Flag of USIridium (US)
ManufacturerUnknown
MissionSpacecraft
Bus & MotorUnknown
MassUnknown
Launch date (UTC)
1997-09-14 (27 years ago)
Launch vehicleUnknown
Launch site
Tyuratam Missile And Space Complex (TTMTR)
Object type
Payload
Rocket body
Debris
Shape & HBRUnknown
Radar Cross SectionSmall (<0.1 m²)

Expand to show TLE details & history

TLE from 5 days ago
0 IRIDIUM 33 DEB
1 38474U 97051AAB 24342.80137933  .00005228  00000-0  13997-2 0  9995
2 38474  86.3467 170.9032 0024352 242.9697 116.9020 14.47940438810292
Epoch: 2024-12-07T19:13Z
Definitive object data (Epoch: 2024-12-07T19:13:59.174Z)
Latitude-0.00006°
Longitude165.35838°
Altitude743.323 km
Speed7.479 km/s
True Right ascension11h 23m 36s
True Declination0° 00' 00"
Sunlit
Object was in daylight at TLE epoch
Visualization TLE readout
Latitude-60.0196°
Longitude157.06689°
Altitude750.136 km
Speed7.481 km/s
Apparent Right ascension15h 51m 37s
Apparent Declination-66° 48' 07"
Sunlit
Object is in daylight
Visualization observer readout
Local Sidereal Time06:50:55
Azimuth152.157° SSE
Elevation-53.522°
Doppler factor1
Orbital elements
Apogee altitude746.637 km
Perigee altitude712.021 km
Semi-major axis7,107.466 km
Eccentricity0.0024352
Inclination86.3467°
RAAN170.9032°
Arg. of periapsis242.9697°
True anomaly117.15051°
Mean anomaly116.902°
Eccentric anomaly117.02629°
Mean motion3.62219 °/min
BSTAR0.0013997
Orbital period99.39 mins
Loading maneuver chart data...

IRIDIUM 33 DEB Visibility forecast

Observer location: undefined°, undefined

Span
Click to sort rows by Start time (UTC) header in descending order
Start Az.
Max El. time (UTC)
Max El. Az.
Max El.
End time (UTC)
End Az.
8 mins2024-12-12 12:08:15.660Z139.575° SSE2024-12-12 12:12:15.660Z80.26° E25.935°2024-12-12 12:16:15.660Z25.935° NE
6 mins2024-12-12 13:49:15.660Z236.149° WSW2024-12-12 13:52:15.660Z290.086° WNW25.247°2024-12-12 13:55:15.660Z333.287° NNW
7 mins2024-12-13 00:13:15.660Z12.294° NNE2024-12-13 00:16:15.660Z86.25° E40.765°2024-12-13 00:20:15.660Z163.009° S
|